Regional Weather Roundup
Issued by NWS

Home | Current Version | Previous Version | Graphics & Text | Print | Product List | Glossary On
Versions: 1 2 3 4 5 6 7 8 9 10 11 12 13 14 15 16 17 18 19 20 21 22 23 24 25 26 27 28 29 30 31 32 33 34 35 36 37 38 39 40 41 42 43 44 45 46 47 48 49 50
000
ASUS43 KMPX 221710
RWRMN
WEATHER ROUNDUP FOR MINNESOTA
NATIONAL WEATHER SERVICE TWIN CITIES/CHANHASSEN MN
1100 AM CST WED FEB 22 2017


NOTE: "FAIR" INDICATES FEW OR NO CLOUDS BELOW 12,000 FEET WITH NO
SIGNIFICANT WEATHER AND/OR OBSTRUCTIONS TO VISIBILITY. N/A MEANS
CURRENT SKY AND/OR WEATHER CONDITIONS ARE NOT AVAILABLE.

MNZ060>063-068>070-221800-
   Twin Cities Metro

CITY           SKY/WX    TMP DP  RH WIND       PRES   REMARKS
TWIN CITIES    CLOUDY    47  41  80 CALM      29.58F
ST PAUL        CLOUDY    47  42  83 S3        29.58F
CRYSTAL        MOSUNNY   46  41  82 CALM      29.58F HAZE
BLAINE         CLOUDY    45  45 100 CALM      29.59F
LAKEVILLE      CLOUDY    48  41  76 CALM      29.58F
EDEN PRAIRIE   CLOUDY    46  43  89 W3        29.58F FOG
SOUTH ST PAUL  MOSUNNY   47  40  78 CALM      29.57F
LAKE ELMO      FAIR      46  43  87 CALM      29.59F
$$
MNZ001>005-007-008-013>017-022>024-027-028-221800-
   Northwest Minnesota

CITY           SKY/WX    TMP DP  RH WIND       PRES   REMARKS
BEMIDJI        CLOUDY    35  33  94 N12       29.66S WCI  26
HALLOCK        CLOUDY    34  28  80 N15       29.78R WCI  24
ROSEAU         CLOUDY    32  28  86 N9        29.76S WCI  24
WARROAD        CLOUDY    32  28  86 N10       29.76S WCI  24
THIEF RVR FALL MIX PCPN  33  31  92 N16       29.74R WCI  23
CROOKSTON      MIX PCPN  34  34 100 N12       29.74S WCI  25
FOSSTON        MIX PCPN  32  32 100 N12       29.69S WCI  23
DETROIT LAKES    N/A     36  34  93 N7        29.66R FOG
MOORHEAD       RAIN      32  32 100 N15       29.67F WCI  22
PARK RAPIDS    CLOUDY    40  34  79 NE5       29.62F
MAHNOMEN       CLOUDY    34  34  99 N13       29.67R WCI  25
$$
MNZ006-009>011-018-025>026-221800-
   North Central Minnesota

CITY           SKY/WX    TMP DP  RH WIND       PRES   REMARKS
BAUDETTE       FLURRIES  33  31  92 N10       29.73R WCI  25
FLAG ISLAND    CLOUDY    30  25  80 N13       29.76S WCI  20
INTL FALLS     CLOUDY    34  30  85 NE8       29.70S WCI  27
WASKISH        CLOUDY    34  34 100 NE7       29.70S WCI  28
BIG FORK       CLOUDY    36  34  93 CALM      29.67S
LONGVILLE      CLOUDY    37  36  93 N3        29.63F
GRAND RAPIDS   CLOUDY    39  34  82 N3        29.66S
CRANE LAKE     CLOUDY    34  32  93 CALM      29.70R
ORR            CLOUDY    36  30  80 CALM      29.65R
COOK           CLOUDY    37  34  87 N5        29.66S
WALKER         CLOUDY    36  35  95 N3        29.64S
$$
MNZ012-019>021-037-221800-
   Northeast Minnesota

CITY           SKY/WX    TMP DP  RH WIND       PRES   REMARKS
DULUTH         CLOUDY    44  36  73 NE5       29.61S
ELY            CLOUDY    36  32  87 CALM      29.65R
HIBBING        CLOUDY    39  35  86 N3        29.63S
EVELETH        CLOUDY    40  33  75 NE5       29.65S
DULUTH HARBOR  CLOUDY    37  36  93 CALM      29.64R
TWO HARBORS    CLOUDY    46  37  71 E5        29.61R
SILVER BAY     PTSUNNY   43  36  75 E7        29.62R
GRAND MARAIS     N/A     40  34  79 E3        29.64R
G MARAIS ARPRT CLOUDY    41  28  60 CALM      29.61R
$$
MNZ029>031-032-039>041-046>048-054>057-064-221800-
   West Central Minnesota

CITY           SKY/WX    TMP DP  RH WIND       PRES   REMARKS
FERGUS FALLS   CLOUDY    39  39 100 N8        29.67S
WHEATON        PTSUNNY   39  37  93 N7        29.65S FOG
MORRIS         MOSUNNY   45  41  87 NE8       29.60S
ALEXANDRIA     CLOUDY    45  38  76 NE7       29.61S
ELBOW LAKE     FAIR      39  38  94 N9        29.61F
WADENA         CLOUDY    39  37  93 NE9       29.61F
GLENWOOD       MOSUNNY   43  37  81 N9        29.61R
APPLETON       CLOUDY    46  41  81 N8        29.60R
BENSON         MOSUNNY   48  37  66 NE7       29.62R
ORTONVILLE       N/A     43  37  81 CALM      29.61S
MADISON        CLOUDY    45  45 100 NW10      29.61R
WILLMAR        FAIR      45  43  93 SE6       29.60S
$$
MNZ033>034-036-042>043-049>051-058-059-221800-
   Central Minnesota

CITY           SKY/WX    TMP DP  RH WIND       PRES   REMARKS
ST CLOUD       CLOUDY    41  40  96 E5        29.57F
SAUK CENTRE    FAIR      42  39  88 NE5       29.60F
PAYNESVILLE    CLOUDY    43  41  91 NE6       29.60S
AITKIN         CLOUDY    45  36  70 N3        29.61R
PINE RIVER     CLOUDY    39  37  93 N5        29.67F
BRAINERD       MOSUNNY   41  38  89 N5        29.63R
STAPLES        CLOUDY    39  37  93 NE6       29.61F
LONG PRAIRIE   PTSUNNY   37  36  93 N5        29.60F
LITTLE FALLS   CLOUDY    39  36  87 N5        29.62R
LITCHFIELD     CLOUDY    45  43  93 N5        29.59S
BUFFALO        CLOUDY    41  40  95 NE7       29.57F FOG
MAPLE LAKE     CLOUDY    42  42 100 N6        29.59F FOG
HUTCHINSON     CLOUDY    46  44  93 NW9       29.59F
$$
MNZ037-044-045-052-053-221800-
   East Central Minnesota

CITY           SKY/WX    TMP DP  RH WIND       PRES   REMARKS
PRINCETON      CLOUDY    41  39  93 N7        29.60S
MORA           CLOUDY    37  37 100 CALM      29.62S
CAMBRIDGE      LGT RAIN  41  39  93 NE6       29.57F
RUSH CITY      CLOUDY    37  37 100 NE3       29.61F
MOOSE LAKE     CLOUDY    41  36  81 NE3       29.59F
HINCKLEY       FAIR      41  39  93 CALM      29.60F
CLOQUET        CLOUDY    45  36  70 NE3       29.60F
MCGREGOR       PTSUNNY   41  37  87 N5        29.62S
$$
MNZ071>073-080-081-089-090-097-098-221800-
   Southwest Minnesota

CITY           SKY/WX    TMP DP  RH WIND       PRES   REMARKS
MONTEVIDEO     CLOUDY    45  45 100 CALM      29.61S
GRANITE FALLS  CLOUDY    45  42  91 CALM      29.60F
CANBY          CLOUDY    44  41  89 NW5       29.63R
MARSHALL       PTSUNNY   45  42  89 NW5       29.61S
REDWOOD FALLS  CLOUDY    46  41  82 W7        29.58F
OLIVIA         CLOUDY    43  41  93 N5        29.58F
PIPESTONE      MOSUNNY   52  37  58 CALM      29.61R
WINDOM         CLOUDY    52  39  62 W5        29.58F
WORTHINGTON    MOSUNNY   52  41  66 SW8       29.60F
JACKSON        MOSUNNY   52  37  58 W9        29.59F
TRACY          MOSUNNY   49  45  84 NW7       29.60F
SLAYTON        CLOUDY    49  43  77 NW9       29.62R
$$
MNZ065>067-074>077-082>085-091>093-221800-
   South Central Minnesota

CITY           SKY/WX    TMP DP  RH WIND       PRES   REMARKS
MANKATO          N/A     46  40  79 NW5       29.59F
NEW ULM        MOSUNNY   46  43  87 S5        29.57F
ST JAMES       MOSUNNY   50  43  76 CALM      29.58F
FAIRMONT       PTSUNNY   48  41  76 N6        29.59F
GLENCOE        PTSUNNY   46  46  99 E3        29.56F
FARIBAULT      CLOUDY    48  39  71 CALM      29.58F
OWATONNA       MOSUNNY   52  39  62 W5        29.58S
WASECA         PTSUNNY   46  37  71 CALM      29.58F
ALBERT LEA     CLOUDY    52  39  62 W6        29.58F
$$
MNZ078>079-086>088-094>096-221800-
   Southeast Minnesota

CITY           SKY/WX    TMP DP  RH WIND       PRES   REMARKS
ROCHESTER      SUNNY     53  40  61 W7        29.59F
RED WING       CLOUDY    48  37  66 CALM      29.57F
STANTON        PTSUNNY   49  40  71 W6        29.58S
DODGE CENTER   MOSUNNY   48  41  76 S7        29.56F
WINONA         MOSUNNY   54  37  54 CALM      29.61F
AUSTIN         SUNNY     52  39  62 W3        29.58F
PRESTON        SUNNY     51  38  63 W12       29.61R
$$
ABBREVIATIONS USED IN REMARKS
   TC - TEMPERATURES IN CELSIUS
  WCI - WIND CHILL INDEX
   HX - HEAT INDEX
  VSB - VISIBILITY
$$



USA.gov is the U.S. government's official web portal to all federal, state and local government web resources and services.